User: anonymous   Login
Location: Sternwarte Hubelmatt
(47.0367°N, 8.3053°E)
Time: 20:42:13
(UTC+02:00)
Language:

UWE-3 - Orbit

View from above orbital plane
View from above orbital plane
View from above satellite
View from above satellite

Ground track
Ground track

The orbit data is extracted from the following two-line orbital elements,

1 39446U 13066AG  24112.81516175  .00014897  00000-0  16771-2 0  9999
2 39446  97.7769  63.8046 0062781  46.1249 314.5128 14.85300293560336
Epoch (UTC): 21 April 2024 19:33:49
Eccentricity: 0.0062781
inclination: 97.7769°
perigee height: 569 km
apogee height: 656 km
right ascension of ascending node: 63.8046°
argument of perigee: 46.1249°
revolutions per day: 14.85300293
mean anomaly at epoch: 314.5128°
orbit number at epoch: 56033

The dashed part of the orbit path shows where the satellite is in the earth's shadow,  

DLR